period_start,C,m1,H,J0,J1,J2,J3,J4,J5,JA,JB,JC,JD,JJ,JK,JN,#
2017-02-02 00:04:28,0.12,11.65,0.00,22.47,26.03,29.69,14.38,52.75,1002.94,2030.02,1117.92,1328.83,1495.20,599.50,588.54,46.90,0000 0000 0000 0000 000000
2017-02-02 00:09:29,0.20,11.66,0.00,22.47,26.05,29.70,14.48,52.94,1002.96,2030.00,1117.08,1328.05,1494.50,599.97,589.07,46.95,0000 0000 0000 0000 000000
2017-02-02 00:14:30,0.16,11.66,0.00,22.48,26.05,29.72,14.46,52.97,1002.95,2030.00,1116.30,1327.64,1493.91,599.92,589.04,47.00,0000 0000 0000 0000 000000
2017-02-02 00:19:32,0.16,11.67,0.00,22.51,26.07,29.75,14.43,52.82,1003.12,2030.00,1115.54,1327.02,1493.09,600.02,589.19,47.06,0000 0000 0000 0000 000000
2017-02-02 00:24:33,0.17,11.68,0.00,22.51,26.08,29.80,14.46,52.94,1003.05,2030.00,1114.79,1326.42,1492.47,599.91,588.96,47.11,0000 0000 0000 0000 000000
2017-02-02 00:29:35,0.09,11.69,0.00,22.53,26.10,29.79,14.52,52.79,1002.99,2030.00,1114.02,1325.97,1491.89,600.14,589.13,47.16,0000 0000 0000 0000 000000
2017-02-02 00:34:36,0.23,11.70,0.00,22.56,26.12,29.82,14.46,52.85,1003.02,2030.00,1113.17,1325.19,1491.06,600.04,588.95,47.21,0000 0000 0000 0000 000000
2017-02-02 00:39:37,0.17,11.71,0.00,22.60,26.13,29.85,14.32,52.88,1003.28,2029.98,1112.42,1324.74,1490.35,599.92,589.02,47.26,0000 0000 0000 0000 000000
2017-02-02 00:44:39,0.15,11.72,0.00,22.60,26.15,29.85,14.41,52.77,1003.44,2029.97,1111.66,1324.02,1489.69,599.94,589.13,47.31,0000 0000 0000 0000 000000
2017-02-02 00:49:40,0.16,11.72,0.00,22.58,26.17,29.89,14.44,52.59,1003.45,2029.97,1110.85,1323.50,1488.96,599.69,588.96,47.36,0000 0000 0000 0000 000000
2017-02-02 00:54:41,0.13,11.74,0.00,22.61,26.19,29.92,14.52,52.73,1003.58,2029.91,1110.03,1322.97,1488.13,599.84,589.05,47.41,0000 0000 0000 0000 000000
2017-02-02 00:59:43,0.21,11.74,0.00,22.66,26.20,29.91,14.48,52.65,1003.54,2029.83,1109.19,1322.25,1487.58,600.18,589.22,47.46,0000 0000 0000 0000 000000
2017-02-02 01:04:44,0.13,11.75,0.00,22.66,26.22,29.95,14.46,52.60,1003.49,2029.63,1108.45,1321.75,1486.83,599.98,589.00,47.51,0000 0000 0000 0000 000000
2017-02-02 01:09:45,0.10,11.76,0.00,22.66,26.25,29.96,14.38,52.80,1003.47,2029.23,1107.68,1321.03,1486.03,600.22,589.17,47.56,0000 0000 0000 0000 000000
2017-02-02 01:14:46,0.15,11.76,0.00,22.67,26.26,29.96,14.44,52.84,1003.46,2029.07,1106.90,1320.48,1485.31,600.26,589.23,47.61,0000 0000 0000 0000 000000
2017-02-02 01:19:47,0.15,11.77,0.00,22.70,26.27,30.02,14.41,52.85,1003.57,2029.05,1106.04,1319.96,1484.67,600.18,589.18,47.66,0000 0000 0000 0000 000000
2017-02-02 01:24:49,0.20,11.78,0.00,22.72,26.30,30.01,14.41,52.83,1003.79,2029.02,1105.20,1319.17,1483.98,599.96,589.09,47.71,0000 0000 0000 0000 000000
2017-02-02 01:29:50,0.18,11.79,0.00,22.72,26.31,30.01,14.45,52.87,1003.88,2029.00,1104.41,1318.75,1483.13,600.04,589.24,47.76,0000 0000 0000 0000 000000
2017-02-02 01:34:51,0.17,11.80,0.00,22.73,26.32,30.05,14.40,52.96,1003.70,2029.00,1103.68,1318.03,1482.46,600.05,589.13,47.81,0000 0000 0000 0000 000000
2017-02-02 01:39:53,0.20,11.81,0.00,22.75,26.35,30.04,14.48,53.06,1003.77,2029.00,1102.77,1317.41,1481.69,600.08,589.20,47.86,0000 0000 0000 0000 000000
2017-02-02 01:44:54,0.14,11.82,0.00,22.76,26.36,30.09,14.42,53.00,1003.87,2029.00,1101.89,1316.84,1480.93,600.01,589.08,47.91,0000 0000 0000 0000 000000
2017-02-02 01:49:56,0.20,11.83,0.00,22.78,26.37,30.10,14.41,52.98,1003.90,2029.00,1101.02,1316.05,1480.08,599.74,588.84,47.97,0000 0000 0000 0000 000000
2017-02-02 01:54:57,0.22,11.83,0.00,22.80,26.39,30.09,14.47,52.89,1003.92,2028.98,1100.14,1315.49,1479.37,600.08,589.13,48.02,0000 0000 0000 0000 000000
2017-02-02 01:59:58,0.17,11.85,0.00,22.96,26.41,30.08,14.45,52.77,1003.92,2028.98,1099.27,1314.93,1478.62,600.06,588.72,48.07,0000 0000 0000 0000 000000
2017-02-02 02:04:59,0.18,11.86,0.00,23.08,26.42,30.13,14.44,52.94,1003.92,2028.94,1098.46,1314.13,1477.90,600.10,588.51,48.12,0000 0000 0000 0000 000000
2017-02-02 02:10:01,0.17,11.86,0.00,23.04,26.45,30.16,14.42,52.97,1003.93,2028.80,1097.71,1313.59,1477.06,600.01,588.45,48.17,0000 0000 0000 0000 000000
2017-02-02 02:15:02,0.11,11.87,0.00,22.94,26.47,30.24,14.48,53.35,1003.93,2028.55,1096.84,1312.99,1476.34,599.99,588.76,48.22,0000 0000 0000 0000 000000
2017-02-02 02:20:03,0.16,11.88,0.00,22.90,26.48,30.28,14.41,53.29,1003.98,2028.23,1095.92,1312.17,1475.48,599.81,588.78,48.27,0000 0000 0000 0000 000000
2017-02-02 02:25:05,0.19,11.89,0.00,22.93,26.50,30.30,14.45,53.14,1004.04,2028.08,1095.06,1311.54,1474.71,599.98,588.79,48.32,0000 0000 0000 0000 000000
2017-02-02 02:30:06,0.16,11.90,0.00,22.88,26.51,30.25,14.45,53.12,1004.28,2028.03,1094.20,1310.88,1473.89,600.08,589.13,48.37,0000 0000 0000 0000 000000
2017-02-02 02:35:08,0.21,11.91,0.00,22.85,26.52,30.22,14.50,53.06,1004.38,2028.02,1093.26,1310.06,1473.06,600.10,589.29,48.42,0000 0000 0000 0000 000000
2017-02-02 02:40:09,0.20,11.92,0.00,22.87,26.52,30.18,14.47,52.96,1004.41,2028.02,1092.57,1309.54,1472.33,600.01,589.07,48.47,0000 0000 0000 0000 000000
2017-02-02 02:45:11,0.10,11.92,0.00,22.97,26.55,30.15,14.45,52.71,1004.41,2028.00,1091.80,1308.99,1471.78,600.01,588.99,48.52,0000 0000 0000 0000 000000
2017-02-02 02:50:12,0.19,11.94,0.00,23.14,26.55,30.19,14.44,52.71,1004.43,2028.00,1090.99,1308.29,1471.04,600.07,588.65,48.57,0000 0000 0000 0000 000000
2017-02-02 02:55:13,0.18,11.94,0.00,23.11,26.57,30.23,14.47,52.90,1004.42,2028.00,1090.12,1307.84,1470.35,599.94,588.61,48.62,0000 0000 0000 0000 000000
2017-02-02 03:00:15,0.20,11.95,0.00,23.00,26.57,30.28,14.44,52.75,1004.42,2028.00,1089.37,1307.06,1469.71,600.08,589.02,48.67,0000 0000 0000 0000 000000
2017-02-02 03:05:16,0.19,11.96,0.00,23.10,26.60,30.29,14.48,52.78,1004.61,2027.99,1088.62,1306.45,1468.93,600.64,589.42,48.72,0000 0000 0000 0000 000000
2017-02-02 03:10:17,0.13,11.97,0.00,23.17,26.60,30.32,14.40,53.04,1004.84,2027.98,1087.82,1305.94,1468.09,599.85,588.59,48.77,0000 0000 0000 0000 000000
2017-02-02 03:15:18,0.20,11.98,0.00,23.13,26.62,30.33,14.46,53.08,1004.87,2027.97,1087.04,1305.14,1467.43,599.98,588.66,48.83,0000 0000 0000 0000 000000
2017-02-02 03:20:20,0.15,11.99,0.00,23.10,26.62,30.32,14.47,53.17,1004.89,2027.96,1086.44,1304.76,1466.86,600.03,588.98,48.88,0000 0000 0000 0000 000000
2017-02-02 03:25:21,0.14,12.00,0.00,23.17,26.65,30.35,14.39,52.95,1004.90,2027.93,1085.78,1304.03,1466.05,599.98,588.77,48.93,0000 0000 0000 0000 000000
2017-02-02 03:30:23,0.19,12.00,0.00,23.18,26.65,30.36,14.42,53.02,1004.93,2027.95,1085.01,1303.50,1465.28,599.91,588.77,48.98,0000 0000 0000 0000 000000
2017-02-02 03:35:24,0.13,12.01,0.00,23.14,26.66,30.40,14.47,53.07,1004.92,2027.94,1084.17,1302.99,1464.80,599.95,588.87,49.03,0000 0000 0000 0000 000000
2017-02-02 03:40:25,0.21,12.02,0.00,23.11,26.67,30.38,14.45,52.94,1004.96,2027.89,1083.46,1302.33,1464.03,599.99,589.00,49.08,0000 0000 0000 0000 000000
2017-02-02 03:45:27,0.07,12.03,0.00,23.20,26.67,30.33,14.45,52.95,1005.22,2027.78,1082.80,1301.98,1463.37,600.27,589.24,49.13,0000 0000 0000 0000 000000
2017-02-02 03:50:28,0.15,12.04,0.00,23.25,26.69,30.35,14.49,53.13,1005.35,2027.60,1082.01,1301.23,1462.79,600.15,589.10,49.18,0000 0000 0000 0000 000000
2017-02-02 03:55:30,0.15,12.04,0.00,23.21,26.70,30.39,14.43,53.13,1005.39,2027.36,1081.15,1300.78,1462.03,600.00,589.03,49.23,0000 0000 0000 0000 000000
2017-02-02 04:00:31,0.18,12.05,0.00,23.18,26.70,30.42,14.46,53.00,1005.39,2027.16,1080.32,1300.04,1461.22,600.17,589.30,49.28,0000 0000 0000 0000 000000
2017-02-02 04:05:32,0.16,12.06,0.00,23.24,26.70,30.37,14.46,53.12,1005.39,2027.05,1079.66,1299.55,1460.64,600.08,589.08,49.33,0000 0000 0000 0000 000000
2017-02-02 04:10:33,0.13,12.07,0.00,23.28,26.72,30.36,14.42,53.11,1005.39,2027.03,1078.79,1298.93,1459.88,599.90,588.78,49.38,0000 0000 0000 0000 000000
2017-02-02 04:15:35,0.21,12.08,0.00,23.27,26.72,30.39,14.47,53.15,1005.40,2027.06,1077.92,1298.11,1459.03,600.08,589.12,49.43,0000 0000 0000 0000 000000
2017-02-02 04:20:36,0.23,12.09,0.00,23.28,26.72,30.39,14.41,53.24,1005.40,2027.04,1077.04,1297.39,1458.12,599.88,588.84,49.48,0000 0000 0000 0000 000000
2017-02-02 04:25:38,0.17,12.10,0.00,23.25,26.74,30.41,14.43,53.24,1005.45,2027.02,1076.16,1296.89,1457.34,599.64,588.71,49.53,0000 0000 0000 0000 000000
2017-02-02 04:30:39,0.22,12.11,0.00,23.24,26.75,30.40,14.37,53.21,1005.73,2027.01,1075.33,1296.08,1456.68,599.69,588.89,49.58,0000 0000 0000 0000 000000
2017-02-02 04:35:40,0.18,12.12,0.00,23.25,26.75,30.42,14.51,53.24,1005.84,2027.03,1074.47,1295.58,1455.98,600.18,589.49,49.63,0000 0000 0000 0000 000000
2017-02-02 04:40:42,0.15,12.13,0.00,23.28,26.75,30.42,14.47,53.03,1005.87,2027.01,1073.68,1295.00,1455.12,600.37,589.57,49.68,0000 0000 0000 0000 000000
2017-02-02 04:45:43,0.19,12.14,0.00,23.27,26.76,30.42,14.43,53.25,1005.88,2027.00,1072.97,1294.23,1454.36,599.83,589.02,49.73,0000 0000 0000 0000 000000
2017-02-02 04:50:44,0.13,12.15,0.00,23.27,26.77,30.42,14.44,53.33,1005.88,2027.00,1072.13,1293.88,1453.84,600.02,589.24,49.79,0000 0000 0000 0000 000000
2017-02-02 04:55:45,0.22,12.15,0.00,23.26,26.77,30.42,14.45,52.99,1005.91,2027.00,1071.39,1293.08,1453.04,599.94,589.13,49.84,0000 0000 0000 0000 000000
2017-02-02 05:00:47,0.14,12.16,0.00,23.25,26.77,30.43,14.46,52.97,1006.13,2027.00,1070.74,1292.74,1452.36,600.33,589.65,49.89,0000 0000 0000 0000 000000
2017-02-02 05:05:48,0.12,12.17,0.00,23.30,26.77,30.42,14.42,53.11,1006.18,2027.00,1069.98,1292.03,1451.88,599.97,589.34,49.94,0000 0000 0000 0000 000000
2017-02-02 05:10:49,0.20,12.18,0.00,23.28,26.78,30.42,14.46,53.18,1006.34,2027.00,1069.17,1291.64,1451.07,600.13,589.56,49.99,0000 0000 0000 0000 000000
2017-02-02 05:15:50,0.18,12.19,0.00,23.20,26.78,30.45,14.50,53.29,1006.36,2027.00,1068.44,1291.02,1450.51,599.86,589.41,50.04,0000 0000 0000 0000 000000
2017-02-02 05:20:51,0.14,12.19,0.00,23.29,26.79,30.41,14.44,53.15,1006.36,2027.00,1067.78,1290.47,1449.90,600.07,589.38,50.09,0000 0000 0000 0000 000000
2017-02-02 05:25:53,0.14,12.21,0.00,23.34,26.80,30.42,14.47,53.22,1006.37,2027.00,1067.02,1289.99,1449.09,600.52,589.79,50.14,0000 0000 0000 0000 000000
2017-02-02 05:30:54,0.24,12.22,0.00,23.26,26.80,30.46,14.46,53.29,1006.37,2027.00,1066.19,1289.26,1448.49,599.79,589.27,50.19,0000 0000 0000 0000 000000
2017-02-02 05:35:55,0.13,12.22,0.00,23.19,26.80,30.44,14.45,53.21,1006.37,2027.00,1065.45,1288.92,1447.89,599.91,589.59,50.24,0000 0000 0000 0000 000000
2017-02-02 05:40:57,0.21,12.23,0.00,23.22,26.79,30.38,14.55,53.42,1006.37,2026.98,1064.65,1288.11,1447.05,600.40,590.00,50.29,0000 0000 0000 0000 000000
2017-02-02 05:45:58,0.16,12.24,0.00,23.31,26.79,30.37,14.47,53.18,1006.56,2026.99,1063.91,1287.63,1446.32,599.77,589.41,50.34,0000 0000 0000 0000 000000
2017-02-02 05:50:59,0.15,12.25,0.00,23.29,26.80,30.40,14.44,53.15,1006.49,2026.98,1063.06,1287.01,1445.75,599.98,589.41,50.39,0000 0000 0000 0000 000000
2017-02-02 05:56:01,0.22,12.26,0.00,23.31,26.80,30.42,14.41,53.23,1006.47,2026.98,1062.20,1286.36,1445.01,599.66,589.14,50.44,0000 0000 0000 0000 000000
2017-02-02 06:01:02,0.16,12.27,0.00,23.27,26.80,30.39,14.49,53.38,1006.70,2026.97,1061.42,1285.96,1444.22,600.18,589.84,50.49,0000 0000 0000 0000 000000
2017-02-02 06:06:03,0.21,12.28,0.00,23.24,26.80,30.41,14.51,53.38,1006.83,2026.98,1060.67,1285.17,1443.62,600.13,589.94,50.54,0000 0000 0000 0000 000000
2017-02-02 06:11:04,0.14,12.29,0.00,23.16,26.80,30.46,14.47,53.33,1006.85,2026.98,1059.86,1284.69,1442.92,600.08,590.13,50.59,0000 0000 0000 0000 000000
2017-02-02 06:16:05,0.17,12.30,0.00,23.16,26.80,30.46,14.44,53.11,1006.85,2026.97,1059.04,1284.03,1442.09,599.92,589.96,50.64,0000 0000 0000 0000 000000
2017-02-02 06:21:07,0.23,12.31,0.00,23.18,26.79,30.41,14.55,53.21,1006.85,2026.98,1058.21,1283.41,1441.39,600.30,590.11,50.70,0000 0000 0000 0000 000000
2017-02-02 06:26:08,0.15,12.32,0.00,23.23,26.79,30.29,14.49,53.38,1006.86,2026.97,1057.32,1282.96,1440.76,600.48,590.33,50.75,0000 0000 0000 0000 000000
2017-02-02 06:31:10,0.21,12.33,0.00,23.26,26.78,30.31,14.44,53.28,1006.90,2026.99,1056.60,1282.17,1440.02,599.96,589.73,50.80,0000 0000 0000 0000 000000
2017-02-02 06:36:11,0.16,12.33,0.00,23.28,26.78,30.37,14.49,53.38,1007.26,2026.98,1055.81,1281.75,1439.27,599.92,589.90,50.85,0000 0000 0000 0000 000000
2017-02-02 06:41:12,0.18,12.35,0.00,23.28,26.79,30.40,14.40,53.37,1007.32,2026.98,1054.91,1281.03,1438.54,599.74,589.72,50.90,0000 0000 0000 0000 000000
2017-02-02 06:46:13,0.20,12.36,0.00,23.24,26.79,30.41,14.49,53.32,1007.34,2026.98,1054.05,1280.41,1437.88,600.05,590.23,50.95,0000 0000 0000 0000 000000
2017-02-02 06:51:14,0.17,12.37,0.00,23.25,26.79,30.40,14.39,53.18,1007.35,2026.99,1053.25,1279.95,1437.07,599.96,590.07,51.00,0000 0000 0000 0000 000000
2017-02-02 06:56:15,0.24,12.38,0.00,23.29,26.80,30.40,14.41,53.18,1007.35,2026.99,1052.45,1279.13,1436.34,600.00,589.98,51.05,0000 0000 0000 0000 000000
2017-02-02 07:01:16,0.15,12.38,0.00,23.27,26.80,30.41,14.47,53.23,1007.45,2026.98,1051.64,1278.82,1435.69,599.96,590.08,51.10,0000 0000 0000 0000 000000
2017-02-02 07:06:17,0.16,12.39,0.00,23.30,26.80,30.41,14.45,53.27,1007.74,2026.98,1050.83,1278.04,1434.95,599.86,590.06,51.15,0000 0000 0000 0000 000000
2017-02-02 07:11:19,0.21,12.40,0.00,23.30,26.80,30.41,14.43,53.24,1007.83,2026.98,1049.98,1277.48,1434.10,600.13,590.35,51.20,0000 0000 0000 0000 000000
2017-02-02 07:16:20,0.17,12.41,0.00,23.27,26.80,30.40,14.45,53.26,1007.84,2026.99,1049.13,1276.97,1433.41,599.77,590.25,51.25,0000 0000 0000 0000 000000
2017-02-02 07:21:21,0.21,12.42,0.00,23.24,26.80,30.41,14.45,53.23,1007.83,2026.98,1048.36,1276.17,1432.84,599.85,590.22,51.30,0000 0000 0000 0000 000000
2017-02-02 07:26:22,0.17,12.43,0.00,23.26,26.79,30.41,14.48,53.41,1007.83,2026.99,1047.60,1275.79,1432.04,599.98,590.31,51.35,0000 0000 0000 0000 000000
2017-02-02 07:31:24,0.17,12.44,0.00,23.29,26.79,30.39,14.40,53.17,1007.83,2026.99,1046.84,1275.04,1431.30,599.92,590.36,51.40,0000 0000 0000 0000 000000
2017-02-02 07:36:25,0.21,12.45,0.00,23.30,26.79,30.38,14.50,53.17,1007.83,2026.97,1046.03,1274.45,1430.63,599.84,590.14,51.45,0000 0000 0000 0000 000000
2017-02-02 07:41:26,0.14,12.46,0.00,23.30,26.79,30.39,14.46,53.27,1007.84,2026.98,1045.18,1273.97,1429.96,600.13,590.42,51.50,0000 0000 0000 0000 000000
2017-02-02 07:46:28,0.24,12.47,0.00,23.26,26.79,30.39,14.44,53.36,1007.84,2026.99,1044.47,1273.18,1429.14,599.70,590.02,51.55,0000 0000 0000 0000 000000
2017-02-02 07:51:29,0.17,12.48,0.00,23.25,26.78,30.41,14.47,53.39,1007.92,2026.99,1043.67,1272.76,1428.46,599.87,590.45,51.61,0000 0000 0000 0000 000000
2017-02-02 07:56:30,0.13,12.49,0.00,23.30,26.77,30.35,14.49,53.24,1008.08,2026.99,1042.94,1272.04,1427.83,600.05,590.52,51.66,0000 0000 0000 0000 000000
2017-02-02 08:01:32,0.22,12.50,0.00,23.33,26.77,30.34,14.46,53.27,1008.29,2026.99,1042.08,1271.51,1427.03,599.86,590.39,51.71,0000 0000 0000 0000 000000
2017-02-02 08:06:33,0.19,12.51,0.00,23.35,26.78,30.38,14.44,53.27,1008.31,2026.99,1041.20,1270.92,1426.23,599.68,590.26,51.76,0000 0000 0000 0000 000000
2017-02-02 08:11:34,0.24,12.52,0.00,23.34,26.78,30.39,14.42,53.17,1008.32,2026.97,1040.44,1270.08,1425.42,599.70,590.16,51.81,0000 0000 0000 0000 000000
2017-02-02 08:16:36,0.14,12.53,0.00,23.38,26.78,30.40,14.43,53.14,1008.33,2026.99,1039.76,1269.64,1424.84,599.99,590.39,51.86,0000 0000 0000 0000 000000
2017-02-02 08:21:37,0.17,12.54,0.00,23.40,26.79,30.41,14.46,53.08,1008.36,2026.99,1038.86,1268.94,1424.03,600.06,590.39,51.91,0000 0000 0000 0000 000000
2017-02-02 08:26:38,0.23,12.55,0.00,23.41,26.80,30.43,14.44,52.95,1008.72,2026.99,1038.02,1268.12,1423.22,599.77,590.40,51.96,0000 0000 0000 0000 000000
2017-02-02 08:31:39,0.22,12.56,0.00,23.41,26.80,30.44,14.41,53.00,1008.80,2026.98,1037.20,1267.64,1422.55,599.98,590.70,52.01,0000 0000 0000 0000 000000
2017-02-02 08:36:41,0.16,12.57,0.00,23.40,26.80,30.46,14.47,53.14,1008.80,2026.97,1036.43,1267.01,1421.91,599.65,590.34,52.06,0000 0000 0000 0000 000000
2017-02-02 08:41:42,0.21,12.58,0.00,23.43,26.80,30.45,14.47,53.05,1008.80,2026.98,1035.71,1266.35,1421.08,599.90,590.51,52.11,0000 0000 0000 0000 000000
2017-02-02 08:46:43,0.12,12.59,0.00,23.44,26.80,30.45,14.49,53.06,1008.80,2026.97,1034.96,1265.96,1420.46,599.93,590.59,52.16,0000 0000 0000 0000 000000
2017-02-02 08:51:44,0.21,12.60,0.00,23.46,26.80,30.46,14.44,52.98,1008.81,2026.96,1034.10,1265.14,1419.82,600.03,590.59,52.21,0000 0000 0000 0000 000000
2017-02-02 08:56:46,0.19,12.60,0.00,23.46,26.80,30.45,14.51,52.89,1008.94,2026.97,1033.33,1264.75,1419.04,600.16,590.79,52.26,0000 0000 0000 0000 000000
2017-02-02 09:01:47,0.20,12.61,0.00,23.45,26.81,30.45,14.50,53.02,1009.21,2026.95,1032.54,1264.02,1418.28,599.85,590.59,52.31,0000 0000 0000 0000 000000
2017-02-02 09:06:48,0.22,12.63,0.00,23.46,26.82,30.46,14.42,52.94,1009.22,2026.94,1031.68,1263.35,1417.59,600.07,590.81,52.36,0000 0000 0000 0000 000000
2017-02-02 09:11:50,0.09,12.63,0.00,23.45,26.82,30.47,14.53,53.03,1009.29,2026.92,1030.94,1262.89,1416.94,599.93,590.78,52.41,0000 0000 0000 0000 000000
2017-02-02 09:16:51,0.24,12.65,0.00,23.47,26.82,30.46,14.48,53.10,1009.31,2026.94,1030.08,1262.09,1416.09,600.11,590.89,52.46,0000 0000 0000 0000 000000
2017-02-02 09:21:53,0.19,12.65,0.00,23.50,26.82,30.47,14.37,53.02,1009.30,2026.95,1029.29,1261.79,1415.56,599.77,590.49,52.52,0000 0000 0000 0000 000000
2017-02-02 09:26:54,0.15,12.66,0.00,23.53,26.82,30.43,14.44,53.01,1009.32,2026.94,1028.65,1261.04,1414.93,600.03,590.70,52.57,0000 0000 0000 0000 000000
2017-02-02 09:31:55,0.17,12.67,0.00,23.49,26.82,30.49,14.50,53.04,1009.55,2026.92,1027.90,1260.54,1414.11,599.88,590.85,52.62,0000 0000 0000 0000 000000
2017-02-02 09:36:57,0.16,12.68,0.00,23.40,26.81,30.54,14.45,53.09,1009.66,2026.83,1027.06,1260.00,1413.57,600.11,591.27,52.67,0000 0000 0000 0000 000000
2017-02-02 09:41:58,0.21,12.69,0.00,23.46,26.80,30.50,14.43,53.14,1009.77,2026.89,1026.33,1259.53,1412.99,599.86,590.90,52.72,0000 0000 0000 0000 000000
2017-02-02 09:46:59,0.15,12.70,0.00,23.49,26.80,30.45,14.53,52.98,1009.78,2026.93,1025.68,1259.00,1412.29,600.21,591.12,52.77,0000 0000 0000 0000 000000
2017-02-02 09:52:01,0.14,12.71,0.00,23.50,26.80,30.45,14.47,53.02,1009.76,2026.92,1024.98,1258.47,1411.83,599.93,590.94,52.82,0000 0000 0000 0000 000000
2017-02-02 09:57:02,0.16,12.72,0.00,23.53,26.80,30.44,14.50,53.04,1009.77,2026.89,1024.14,1257.99,1411.05,599.96,590.89,52.87,0000 0000 0000 0000 000000
2017-02-02 10:02:03,0.23,12.73,0.00,23.55,26.80,30.43,14.46,53.16,1009.78,2026.88,1023.45,1257.31,1410.39,600.05,590.89,52.92,0000 0000 0000 0000 000000
2017-02-02 10:07:04,0.07,12.73,0.00,23.52,26.80,30.43,14.47,53.23,1009.78,2026.89,1022.91,1256.91,1409.82,600.17,591.11,52.97,0000 0000 0000 0000 000000
2017-02-02 10:12:06,0.23,12.74,0.00,23.49,26.80,30.48,14.49,53.28,1009.78,2026.88,1022.08,1256.09,1409.03,600.09,591.10,53.02,0000 0000 0000 0000 000000
2017-02-02 10:17:07,0.22,12.75,0.00,23.54,26.81,30.46,14.48,53.17,1009.79,2026.84,1021.25,1255.68,1408.27,600.22,591.07,53.07,0000 0000 0000 0000 000000
2017-02-02 10:22:08,0.17,12.76,0.00,23.54,26.82,30.46,14.45,53.18,1009.81,2026.89,1020.55,1254.99,1407.69,599.95,591.03,53.12,0000 0000 0000 0000 000000
2017-02-02 10:27:10,0.20,12.77,0.00,23.50,26.82,30.47,14.49,53.27,1009.84,2026.88,1019.69,1254.23,1406.94,599.72,590.79,53.17,0000 0000 0000 0000 000000
2017-02-02 10:32:11,0.14,12.78,0.00,23.50,26.82,30.45,14.44,53.16,1009.82,2026.80,1018.89,1253.79,1406.08,599.86,590.94,53.22,0000 0000 0000 0000 000000
2017-02-02 10:37:13,0.22,12.79,0.00,23.49,26.82,30.47,14.51,53.35,1009.80,2026.77,1018.01,1253.03,1405.32,600.16,591.24,53.27,0000 0000 0000 0000 000000
2017-02-02 10:42:14,0.18,12.80,0.00,23.43,26.82,30.51,14.47,53.38,1009.79,2026.55,1017.15,1252.39,1404.66,599.93,591.21,53.32,0000 0000 0000 0000 000000
2017-02-02 10:47:15,0.16,12.81,0.00,23.45,26.82,30.52,14.49,53.52,1009.82,2026.45,1016.33,1251.91,1403.98,599.86,591.02,53.38,0000 0000 0000 0000 000000
2017-02-02 10:52:16,0.22,12.82,0.00,23.53,26.82,30.44,14.48,53.31,1010.04,2026.53,1015.65,1251.08,1403.16,600.38,591.48,53.43,0000 0000 0000 0000 000000
2017-02-02 10:57:18,0.20,12.83,0.00,23.50,26.82,30.43,14.45,53.31,1009.91,2026.57,1014.84,1250.65,1402.47,599.80,591.00,53.48,0000 0000 0000 0000 000000
2017-02-02 11:02:19,0.16,12.84,0.00,23.45,26.82,30.45,14.46,53.33,1010.07,2026.57,1014.03,1250.01,1401.86,599.95,591.24,53.53,0000 0000 0000 0000 000000
2017-02-02 11:07:20,0.20,12.85,0.00,23.54,26.82,30.43,14.44,53.24,1010.27,2026.37,1013.26,1249.35,1401.06,600.17,591.40,53.58,0000 0000 0000 0000 000000
2017-02-02 11:12:22,0.17,12.86,0.00,23.54,26.82,30.42,14.42,53.23,1010.27,2026.39,1012.47,1248.93,1400.34,599.77,591.00,53.63,0000 0000 0000 0000 000000
2017-02-02 11:17:23,0.19,12.87,0.00,23.54,26.82,30.43,14.54,53.22,1010.34,2026.30,1011.75,1248.11,1399.78,600.15,591.40,53.68,0000 0000 0000 0000 000000
2017-02-02 11:22:25,0.17,12.88,0.00,23.56,26.82,30.42,14.42,53.21,1010.31,2026.51,1010.89,1247.79,1398.99,599.74,591.03,53.73,0000 0000 0000 0000 000000
2017-02-02 11:27:26,0.44,12.89,0.00,23.55,26.82,30.46,14.49,53.25,1010.68,2026.46,1009.47,1246.48,1397.69,600.04,591.43,53.78,0000 0000 0000 0000 000000
2017-02-02 11:32:27,0.52,12.92,0.00,23.53,26.82,30.48,14.51,53.20,1010.75,2026.17,1007.42,1244.67,1395.69,600.05,591.55,53.83,0000 0000 0000 0000 000000
2017-02-02 11:37:29,0.56,12.95,0.00,23.57,26.82,30.45,14.46,53.10,1010.76,2026.16,1005.24,1242.70,1393.56,599.71,591.08,53.88,0000 0000 0000 0000 000000
2017-02-02 11:42:30,0.48,12.97,0.00,23.55,26.82,30.45,14.54,53.25,1010.77,2026.18,1003.35,1241.07,1391.75,600.45,592.06,53.93,0000 0000 0000 0000 000000
2017-02-02 11:47:31,0.46,13.00,0.00,23.56,26.82,30.45,14.53,53.18,1010.95,2026.19,1001.58,1239.68,1390.07,599.94,591.48,53.98,0000 0000 0000 0000 000000
2017-02-02 11:52:33,0.44,13.02,0.00,23.56,26.82,30.47,14.45,53.16,1011.12,2026.23,999.83,1238.19,1388.51,599.99,591.67,54.03,0000 0000 0000 0000 000000
2017-02-02 11:57:34,0.41,13.04,0.00,23.57,26.82,30.45,14.49,53.09,1011.24,2026.19,998.16,1236.77,1386.95,600.15,591.87,54.08,0000 0000 0000 0000 000000
2017-02-02 12:02:35,0.25,13.06,0.00,23.57,26.82,30.48,14.46,53.02,1011.24,2026.20,996.94,1235.88,1385.86,599.79,591.53,54.13,0000 0000 0000 0000 000000
2017-02-02 12:07:37,0.24,13.07,0.00,23.58,26.82,30.44,14.52,53.15,1011.24,2026.29,996.04,1235.09,1385.03,600.08,591.86,54.18,0000 0000 0000 0000 000000
2017-02-02 12:12:38,0.24,13.08,0.00,23.57,26.82,30.43,14.48,53.04,1011.26,2026.20,995.13,1234.48,1384.20,600.11,591.86,54.23,0000 0000 0000 0000 000000
2017-02-02 12:17:39,0.19,13.09,0.00,23.55,26.82,30.45,14.45,53.21,1011.26,2026.26,994.30,1233.97,1383.59,599.60,591.39,54.29,0000 0000 0000 0000 000000
2017-02-02 12:22:41,0.23,13.10,0.00,23.56,26.81,30.47,14.50,53.17,1011.26,2026.35,993.57,1233.21,1382.96,599.95,591.79,54.34,0000 0000 0000 0000 000000
2017-02-02 12:27:42,0.13,13.11,0.00,23.62,26.81,30.44,14.51,53.13,1011.28,2026.21,992.82,1232.81,1382.12,600.10,591.81,54.39,0000 0000 0000 0000 000000
2017-02-02 12:32:44,0.20,13.12,0.00,23.58,26.81,30.43,14.46,53.17,1011.28,2026.15,992.03,1232.06,1381.47,600.09,591.79,54.44,0000 0000 0000 0000 000000
2017-02-02 12:37:45,0.18,13.13,0.00,23.52,26.80,30.44,14.44,53.29,1011.26,2026.08,991.27,1231.64,1380.89,599.62,591.45,54.49,0000 0000 0000 0000 000000
2017-02-02 12:42:46,0.22,13.14,0.00,23.48,26.80,30.49,14.47,53.35,1011.26,2026.16,990.42,1231.01,1380.08,599.89,591.78,54.54,0000 0000 0000 0000 000000
2017-02-02 12:47:48,0.21,13.15,0.00,23.53,26.80,30.47,14.49,53.33,1011.26,2026.10,989.68,1230.48,1379.50,599.88,591.76,54.59,0000 0000 0000 0000 000000
2017-02-02 12:52:49,0.09,13.16,0.00,23.55,26.80,30.43,14.47,53.17,1011.26,2026.10,988.95,1229.98,1378.90,600.08,591.81,54.64,0000 0000 0000 0000 000000